Regional Weather Roundup
Issued by NWS

Home | Current Version | Previous Version | Graphics & Text | Print | Product List | Glossary Off
Versions: 1 2 3 4 5 6 7 8 9 10 11 12 13 14 15 16 17 18 19 20 21 22 23 24 25 26 27 28 29 30 31 32 33 34 35 36 37 38 39 40 41 42 43 44 45 46 47 48 49 50

000
ASUS43 KDMX 161006
RWRIA

WEATHER ROUNDUP FOR IOWA
NATIONAL WEATHER SERVICE DES MOINES IA
400 AM CST TUE JAN 16 2018

NOTE: "FAIR" INDICATES FEW OR NO CLOUDS BELOW 12,000 FEET WITH NO
SIGNIFICANT WEATHER AND/OR OBSTRUCTIONS TO VISIBILITY.

* - THESE STATIONS ARE NOT NWS STATIONS...THUS NOT UNDER NWS
QUALITY CONTROL.  THEY ALSO DO NOT REPORT WEATHER SUCH
AS PRECIPITATION OR FOG.

IAZ001>003-012>014-020>022-031>034-043>046-161100-
   NORTHWEST IOWA

CITY           SKY/WX    TMP DP  RH WIND       PRES   REMARKS
CARROLL *      FLURRIES  -4  -9  77 NW21      30.65R WCI -28
CHEROKEE *     MOCLDY    -6 -12  77 NW12G17   30.69R WCI -25
DENISON *      CLOUDY    -4 -11  71 NW16G22   30.69R WCI -25
LE MARS *      CLOUDY    -4  -9  77 NW7       30.72S WCI -18
ORANGE CITY *  MOCLDY    -2  -8  78 N12       30.67S WCI -20
SHELDON *      CLOUDY    -8 -13  77 NW14      30.67R WCI -28
SIOUX CITY     MOCLDY    -3  -8  79 NW17      30.74R WCI -24
SPENCER        FLURRIES  -6 -13  71 NW20      30.66R WCI -30
STORM LAKE *   CLOUDY    -8 -13  77 NW16      30.63R WCI -30
$$

IAZ055>058-069>071-079>083-090>094-161100-
   SOUTHWEST IOWA

CITY           SKY/WX    TMP DP  RH WIND       PRES   REMARKS
ATLANTIC *     CLOUDY    -4  -9  77 NW18      30.66S WCI -26
AUDUBON *      CLOUDY    -2  -9  71 NW13      30.64R WCI -21
CLARINDA *     CLOUDY    -4 -11  71 N10G16    30.72R WCI -21
COUNCIL BLFS * CLOUDY    -2  -6  84 NW14G23   30.68S WCI -21
CRESTON *      CLOUDY    -4 -11  71 NW14G21   30.63R WCI -24
HARLAN  *      CLOUDY    -4  -9  77 NW15      30.70S WCI -25
LAMONI         CLEAR     -6 -13  71 NW10      30.62R WCI -24
RED OAK *      CLEAR     -4 -11  71 N7        30.70R WCI -18
SHENANDOAH *   MOCLDY    -4  -9  77 NW12      30.72S WCI -22
$$

IAZ047>049-059>061-072>074-084-161100-
   CENTRAL IOWA

CITY           SKY/WX    TMP DP  RH WIND       PRES   REMARKS
AMES           CLOUDY    -5 -10  79 NW17G24   30.63R WCI -27
ANKENY *       FLURRIES  -4 -11  71 NW13G20   30.65S WCI -23
BOONE *        CLOUDY    -6 -11  77 NW15      30.60R WCI -27
CHARITON *     PTCLDY    -8 -13  77 NW13      30.62R WCI -28
DES MOINES     FLURRIES  -4 -11  72 NW14      30.63R WCI -24
GRINNELL*      LGT SNOW  -6 -10  80 NW16      30.58R WCI -28
KNOXVILLE *    FLURRIES  -6 -15  65 NW12      30.61R WCI -24
MARSHALLTOWN   FLURRIES  -4  -9  79 NW16      30.58R WCI -25
NEWTON *       CLOUDY    -6 -11  77 NW10      30.61R WCI -23
PELLA *        FLURRIES  -5 -12  73 NW13      30.63R WCI -25
PERRY *          N/A     -5 -12  71 NW12      30.65R WCI -23
$$

IAZ004>006-015-016-023>025-035-036-161100-
   NORTH CENTRAL IOWA

CITY           SKY/WX    TMP DP  RH WIND       PRES   REMARKS
ALGONA *       LGT SNOW  -4 N/A N/A NW16G23   30.61R WCI -25
CLARION *      CLOUDY    -4  -9  77 NW18      30.61R HAZE    WCI -26
ESTHERVILLE    LGT SNOW  -8 -12  83 NW21      30.64R FOG     WCI -33
FORT DODGE *   FLURRIES  -7 -13  75 NW10      30.64R WCI -25
MASON CITY     CLOUDY    -6 -12  75 NW17      30.59R WCI -28
FOREST CITY *  MOCLDY    -4  -8  84 NW14G20   30.58S HAZE    WCI -24
WEBSTER CITY * FLURRIES  -6 -13  71 NW18      30.60R WCI -29
IOWA FALLS *   CLOUDY    -3  -8  78 NW16      30.59R WCI -24
$$

IAZ007>011-017>019-026>030-037>042-050>054-066-161100-
   NORTHEAST IOWA

CITY           SKY/WX    TMP DP  RH WIND       PRES   REMARKS
CEDAR RAPIDS   LGT SNOW  -2  -8  76 NW14      30.52S WCI -21
CHARLES CITY * CLOUDY    -2  -8  78 NW14      30.55R WCI -21
CLINTON *      FLURRIES   0  -4  83 W15       30.49R WCI -19
DECORAH *      CLOUDY     5   1  85 NW12      30.49R WCI -11
DUBUQUE        LGT SNOW   5   0  79 N15       30.44S WCI -13
MONTICELLO *   CLOUDY     1  -6  71 NW10      30.49S WCI -14
OELWEIN *      CLOUDY     1   0  92 NW14      30.51R WCI -17
WATERLOO       CLOUDY    -1  -7  75 NW15      30.55R WCI -21
$$

IAZ064-065-067-068-078-161100-
   EAST CENTRAL IOWA

CITY           SKY/WX    TMP DP  RH WIND       PRES   REMARKS
DAVENPORT      FLURRIES N/A N/A N/A W13       30.52R
IOWA CITY      LGT SNOW  -1  -9  68 NW13      30.56S WCI -19
MT. PLEASANT * CLEAR     -6 -13  71 W12G17    30.58S WCI -24
MUSCATINE *    FLURRIES   0  -8  71 NW14      30.58R WCI -19
QUAD CITIES    CLOUDY     1  -6  72 W13       30.52S WCI -17
$$

IAZ062-063-075>077-085>089-095>099-161100-
   SOUTHEAST IOWA

CITY           SKY/WX    TMP DP  RH WIND       PRES   REMARKS
BURLINGTON     PTCLDY    -5 -13  68 NW13G21   30.55S WCI -24
FAIRFIELD *    CLOUDY    -6 -17  59 NW14      30.57S WCI -26
FORT MADISON *   N/A     -6 -11  77 NW15      30.57S WCI -27
KEOKUK *       MOCLDY    -4 -11  71 NW9       30.58S WCI -20
OSKALOOSA *    FLURRIES  -5 -11  76 NW20G25   30.59S WCI -29
OTTUMWA        MOCLDY    -5 -13  68 NW18      30.59S WCI -28
WASHINGTON *   CLOUDY    -6  -9  84 W14       30.58R WCI -26
$$

ABBREVIATIONS USED IN REMARKS
   TC - TEMPERATURES IN CELSIUS
  WCI - WIND CHILL INDEX
   HX - HEAT INDEX
  VSB - VISIBILITY
$$





USA.gov is the U.S. government's official web portal to all federal, state and local government web resources and services.